Flag for Germany Weather past 2 weeks in Sankt Augustin, North Rhine-Westphalia, Germany

Now
50 °F

Broken clouds.


Feels Like: 43 °F
Forecast: 44 / 56 °F
Wind: 23 mph from West

Location: Koeln / Bonn

Current Time: Oct 22, 2014 at 2:26:24 PM

Latest Report: Oct 22, 2014 at 1:50 PM


Visibility: N/A

Pressure: 30.04 "Hg

Humidity: 82%

Dew point: 45 °F

Location of Sankt AugustinLocation

Historic Weather in Sankt Augustin — Graph

°F

Sankt Augustin temperature yesterday

Maximum temperature yesterday: 57 °F (at 3:20 PM)
Minimum temperature yesterday: 45 °F (at 11:50 PM)
Average temperature yesterday: 51 °F

Past Weeks' High & Low Weather Summary

 TemperatureHumidityPressure
High75 °F (Oct 19, 1:50 PM)100% (Oct 11, 3:50 AM)30.12 "Hg (Oct 11, 3:50 AM)
Low43 °F (Oct 22, 12:20 AM)46% (Oct 14, 2:50 PM)29.53 "Hg (Oct 21, 4:20 PM)
Average57 °F82%29.86 "Hg
* Reported Oct 7 1:20 PM — Oct 22 1:20 PM, Sankt Augustin, Weather by CustomWeather, © 2014

Note: Actual official high and low records may vary slightly from our data, if they occured in-between our weather recording intervals... More about our weather records

Advertising

Sankt Augustin weather history for previous 24 hours

 ConditionsComfort  
Time TempWeatherWind HumidityBarometerVisibility
1:20 PM
Oct 22
50 °FScattered showers. Scattered clouds.22 mph82%30.04 "HgN/A
12:50 PM48 °FBroken clouds.21 mph82%30.04 "HgN/A
12:20 PM48 °FBroken clouds.17 mph82%30.04 "HgN/A
11:50 AM46 °FSprinkles. Broken clouds.18 mph87%30.04 "HgN/A
11:20 AM46 °FBroken clouds.13 mph87%30.04 "HgN/A
10:50 AM45 °FLight rain. Broken clouds.20 mph93%30.04 "HgN/A
10:20 AM45 °FBroken clouds.15 mph93%30.04 "HgN/A
9:50 AM45 °FRain. Broken clouds.17 mph87%30.04 "HgN/A
9:20 AM45 °FLight rain. Broken clouds.16 mph87%30.01 "HgN/A
8:50 AM45 °FScattered showers. Partly cloudy.15 mph87%29.98 "HgN/A
8:20 AM45 °FSprinkles. Partly cloudy.18 mph87%29.98 "HgN/A
7:50 AM45 °FSprinkles. Partly cloudy.20 mph87%29.98 "HgN/A
7:20 AM45 °FPartly cloudy.20 mph87%29.98 "HgN/A
6:50 AM45 °FPassing clouds.18 mph87%29.95 "HgN/A
6:20 AM45 °FSprinkles. Partly cloudy.15 mph87%29.95 "HgN/A
5:50 AM45 °FPassing clouds.13 mph87%29.92 "HgN/A
5:20 AM45 °FPartly cloudy.20 mph87%29.92 "HgN/A
4:50 AM45 °FPassing clouds.12 mph87%29.92 "HgN/A
4:20 AM45 °FPartly cloudy.17 mph87%29.92 "HgN/A
3:50 AM45 °FLight rain. Partly cloudy.15 mph87%29.92 "HgN/A
3:20 AM45 °FPartly cloudy.17 mph87%29.92 "HgN/A
2:50 AM45 °FLight rain. Passing clouds.17 mph87%29.92 "HgN/A
2:20 AM45 °FPassing clouds.13 mph87%29.89 "HgN/A
1:50 AM45 °FLight rain. Passing clouds.14 mph87%29.89 "HgN/A
1:20 AM45 °FLight rain. Partly cloudy.22 mph87%29.86 "HgN/A
12:50 AM46 °FPassing clouds.17 mph87%29.86 "HgN/A
12:20 AM43 °FPartly cloudy.10 mph93%29.83 "HgN/A
11:50 PM
Oct 21
45 °FRain showers. Partly cloudy.17 mph81%29.83 "HgN/A
11:20 PM46 °FPassing clouds.18 mph82%29.80 "HgN/A
10:50 PM48 °FPassing clouds.18 mph76%29.77 "HgN/A
10:20 PM48 °FPassing clouds.16 mph76%29.74 "HgN/A
9:50 PM48 °FPassing clouds.12 mph76%29.74 "HgN/A
9:20 PM48 °FPassing clouds.20 mph76%29.71 "HgN/A
8:50 PM48 °FPassing clouds.13 mph76%29.71 "HgN/A
8:20 PM48 °FPartly cloudy.17 mph76%29.71 "HgN/A
7:50 PM48 °FPartly cloudy.18 mph82%29.68 "HgN/A
7:20 PM48 °FPartly sunny.20 mph82%29.65 "HgN/A
6:50 PM50 °FSprinkles. Partly sunny.18 mph82%29.62 "HgN/A
6:20 PM50 °FSprinkles. Broken clouds.15 mph82%29.59 "HgN/A
5:50 PM52 °FLight rain. Broken clouds.21 mph82%29.59 "HgN/A
5:20 PM54 °FRain showers. Broken clouds.21 mph88%29.56 "HgN/A
4:50 PM54 °FRain showers. Broken clouds.21 mph88%29.53 "Hg5 mi
4:20 PM55 °FLight rain. Broken clouds.14 mph88%29.53 "Hg4 mi
3:50 PM55 °FLight rain. Partly sunny.15 mph82%29.56 "HgN/A
3:20 PM57 °FPartly sunny.18 mph72%29.59 "HgN/A
2:50 PM55 °FBroken clouds.15 mph77%29.62 "HgN/A
2:20 PM54 °FPartly sunny.10 mph88%29.62 "HgN/A
Weather by CustomWeather, © 2014

See weather overviewHow to use our weather pages